[[{"header":{"parameterUnit":"m.s-1","parameterCategory":2,"la1":30.2991,"la2":30.254,"lo1":-89.0895,"lo2":-89.0444,"dy":0.0017,"dx":0.0017,"nx":28,"ny":28,"refTime":"2023-08-11T09:00:00:Z","depth":"0","parameterNumber":2,"parameterNumberName":"U-component_of_CURRENTS"},"data":[0,0,0,0,0,0,0,0,0,0,0,0,0,0,0,0,0,0,0,0,0,0,0,0,0,0,0,0,0,0,0,0,0,0,0,0,0,0,0,0,0,0,0,0,0,0,0,0,0,0,0,0,0,0,0,0,0,0,-0.1105,-0.1105,0,-0.1147,-0.1148,-0.1149,-0.1157,-0.1156,-0.1155,-0.1154,-0.0882,-0.0876,-0.087,0,0,0,0,0,0,0,0,0,0,0,0,0,-0.1215,-0.1212,-0.1105,-0.1105,-0.1105,-0.1147,-0.1148,-0.1149,-0.1157,-0.1156,-0.1155,-0.1154,-0.0884,-0.0877,-0.0869,0,0,0,0,0,0,0,0,0,0,0,0,0,-0.1209,-0.1211,-0.1105,-0.1109,-0.1109,-0.1146,-0.1148,-0.1149,-0.1158,-0.1156,-0.1155,-0.1153,-0.0886,-0.0877,-0.0868,-0.0839,0,0,-0.0839,-0.0835,0,0,0,0,0,0,0,0,-0.1209,-0.1206,-0.1108,-0.1109,-0.1109,-0.1139,-0.1086,-0.1028,-0.1158,-0.1147,-0.1154,-0.1152,-0.0935,-0.0922,-0.0948,-0.0826,-0.0815,-0.0838,-0.0832,-0.0828,-0.0826,0,0,0,0,0,0,0,-0.121,-0.1205,-0.1129,-0.1108,-0.1108,-0.117,-0.1167,-0.1078,-0.1049,-0.1148,-0.1147,-0.114,-0.0934,-0.0957,-0.094,-0.0811,-0.0838,-0.083,-0.0824,-0.082,-0.0683,-0.0685,0,0,0,0,0,0,-0.1181,-0.1204,-0.1128,-0.113,-0.1148,-0.1168,-0.1165,-0.1137,-0.1056,-0.1043,-0.1141,-0.114,-0.0974,-0.0951,-0.093,-0.0878,-0.0828,-0.0819,-0.0814,-0.0681,-0.0684,-0.0686,0,0,0,0,0,0,-0.1183,-0.1173,-0.1126,-0.1164,-0.1161,-0.1165,-0.1135,-0.1138,-0.1143,-0.1054,-0.1035,-0.114,-0.0972,-0.0943,-0.0823,-0.0866,-0.0815,-0.0807,-0.0679,-0.0682,-0.0685,-0.0779,0,0,0,0,0,0,-0.1186,-0.1173,-0.1156,-0.1161,-0.1157,-0.1117,-0.1136,-0.114,-0.1138,-0.1137,-0.1045,-0.1021,-0.0969,-0.0838,-0.0814,-0.0852,-0.0799,-0.0676,-0.068,-0.0684,-0.0773,-0.0785,-0.0795,0,0,0,0,0,-0.1189,-0.116,-0.1154,-0.1146,-0.1128,-0.1116,-0.112,-0.1126,-0.1139,-0.1129,-0.1066,-0.1023,-0.0849,-0.0829,-0.0801,-0.0838,-0.0674,-0.0679,-0.0684,-0.0768,-0.0782,-0.0794,0,0,0,0,0,0,-0.1206,-0.1158,-0.1152,-0.111,-0.11,-0.1113,-0.1103,-0.1121,-0.1079,-0.1066,-0.0998,-0.0967,-0.0913,-0.0848,-0.0829,-0.082,-0.0775,-0.0774,-0.085,-0.0862,-0.0873,-0.0824,-0.0791,0,0,0,0,0,-0.1198,-0.1156,-0.1133,-0.1102,-0.1084,-0.1098,-0.1099,-0.1104,-0.1068,-0.1054,-0.0988,-0.0937,-0.0921,-0.0859,-0.0821,-0.0754,-0.0657,-0.0781,-0.0791,-0.0801,-0.0747,-0.0719,-0.0721,-0.0701,-0.0701,-0.0701,0,0,-0.1192,-0.1166,-0.1139,-0.1102,-0.1093,-0.1063,-0.1095,-0.108,-0.1065,-0.1019,-0.0952,-0.0959,-0.0917,-0.0888,-0.0859,-0.0819,-0.0741,-0.0806,-0.0814,-0.0754,-0.0724,-0.0725,-0.0727,-0.0704,-0.0704,-0.0703,0,0,-0.1155,-0.1131,-0.1077,-0.1066,-0.1041,-0.1042,-0.103,-0.1022,-0.102,-0.0957,-0.0982,-0.0997,-0.0883,-0.0919,-0.0914,-0.0947,-0.0821,-0.0954,-0.0928,-0.0905,-0.0905,-0.0904,-0.071,-0.0691,-0.0935,-0.0935,-0.0935,0,-0.1143,-0.1088,-0.1067,-0.1027,-0.1012,-0.1021,-0.0981,-0.0984,-0.0946,-0.0931,-0.0919,-0.0907,-0.0913,-0.0929,-0.098,-0.0973,-0.0857,-0.0884,-0.0916,-0.0913,-0.091,-0.0712,-0.069,-0.094,-0.094,-0.0939,-0.0939,0,-0.1081,-0.1039,-0.1008,-0.0947,-0.0929,-0.0904,-0.0888,-0.0869,-0.0865,-0.0873,-0.0868,-0.0897,-0.088,-0.0954,-0.0965,-0.0996,-0.0881,-0.0955,-0.0875,-0.0918,-0.0706,-0.0681,-0.0948,-0.0946,-0.0944,-0.0943,0,0,-0.1025,-0.0969,-0.0955,-0.0915,-0.0894,-0.0857,-0.0829,-0.08,-0.0762,-0.0773,-0.0732,-0.0837,-0.0867,-0.0867,-0.0939,-0.0949,-0.0882,-0.093,-0.0926,-0.0715,-0.0662,-0.0512,-0.0468,-0.095,-0.0948,-0.0947,-0.0493,0,-0.0974,-0.0895,-0.0882,-0.0797,-0.0752,-0.0754,-0.0713,-0.0698,-0.0684,-0.0638,-0.0727,-0.0719,-0.0827,-0.0842,-0.0876,-0.0887,-0.0829,-0.0986,-0.0666,-0.0652,-0.0503,-0.0444,-0.0331,0.0087,-0.0468,-0.0464,-0.0461,0,-0.0905,-0.0869,-0.0793,-0.0711,-0.0682,-0.0645,-0.0574,-0.0539,-0.052,-0.051,-0.053,-0.0558,-0.0591,-0.0702,-0.0625,-0.0698,-0.0664,-0.0665,-0.065,-0.045,-0.046,0.0022,0.0154,0.0072,-0.0421,-0.0425,-0.0427,0,-0.0867,-0.0784,-0.0724,-0.0707,-0.0631,-0.0594,-0.055,-0.0514,-0.0462,-0.0436,-0.039,-0.0399,-0.039,-0.0375,-0.037,-0.0473,-0.0224,-0.0374,-0.0166,-0.0147,0.0047,0.0077,0.0152,-0.0295,-0.0296,-0.0297,-0.0299,0,-0.0811,-0.0745,-0.0704,-0.0669,-0.0583,-0.0544,-0.0438,-0.0416,-0.0355,-0.0266,-0.0327,-0.0245,-0.0323,-0.0208,-0.022,-0.0029,-0.0075,-0.0078,-0.0033,0.0025,0.0047,0.006,-0.0102,-0.028,-0.0284,-0.0287,-0.029,0,-0.0747,-0.0732,-0.0649,-0.0582,-0.0564,-0.0496,-0.0382,-0.0305,-0.0261,-0.0146,-0.0131,-0.0079,0.0103,0.013,0.0215,0.0202,0.0314,0.0382,0.0551,0.0604,0.0667,0.0496,0.0608,0.0605,0.0727,0.0733,0.0738,0,-0.0702,-0.066,-0.0593,-0.0561,-0.0531,-0.0436,-0.0374,-0.0294,-0.0211,-0.002,0.0038,0.0235,0.0405,0.0686,0.0727,0.0913,0.0638,0.1058,0.0794,0.0771,0.0611,0.0389,0.0357,0.1074,0.1082,0.1088,0.1093,0,-0.0607,-0.0589,-0.0522,-0.0493,-0.0436,-0.0326,-0.0232,-0.0147,-0.0011,0.0103,0.0336,0.0507,0.0815,0.1068,0.1275,0.1316,0.0975,0.119,0.1075,0.0849,0.0704,0.0693,0.0776,0.1148,0.1142,0.1138,0.1135,0.1133,-0.0525,-0.049,-0.044,-0.0378,-0.0321,-0.0209,-0.0105,0.0023,0.0203,0.0428,0.0563,0.0849,0.1215,0.154,0.156,0.1648,0.1396,0.1559,0.1372,0.1167,0.107,0.1364,0.1786,0.1784,0.1782,0.1781,0.178,0,-0.0452,-0.041,-0.0343,-0.0275,-0.0179,-0.0166,-0.0004,0.012,0.0336,0.0573,0.0801,0.1256,0.1608,0.1786,0.2006,0.1868,0.1634,0.171,0.1376,0.1345,0.1602,0.1518,0.2007,0.2007,0.2007,0.2007,0.2007,0.2007,-0.0417,-0.0338,-0.0304,-0.014,-0.0092,0.0037,0.0146,0.0324,0.0501,0.0843,0.1086,0.126,0.1604,0.1906,0.1949,0.1855,0.1487,0.1411,0.1241,0.1346,0.1313,0.1282,0.1168,0.1576,0.1575,0.1054,0.1049,0.1045]},{"header":{"parameterUnit":"m.s-1","parameterCategory":2,"la1":30.2991,"la2":30.254,"lo1":-89.0895,"lo2":-89.0444,"dy":0.0017,"dx":0.0017,"nx":28,"ny":28,"refTime":"2023-08-11T09:00:00:Z","depth":"0","parameterNumber":3,"parameterNumberName":"V-component_of_CURRENTS"},"data":[0,0,0,0,0,0,0,0,0,0,0,0,0,0,0,0,0,0,0,0,0,0,0,0,0,0,0,0,0,0,0,0,0,0,0,0,0,0,0,0,0,0,0,0,0,0,0,0,0,0,0,0,0,0,0,0,0,0,-0.0269,-0.0269,0,-0.0161,-0.0159,-0.0157,-0.0071,-0.0071,-0.0072,-0.0072,0.0087,0.0091,0.0095,0,0,0,0,0,0,0,0,0,0,0,0,0,-0.0229,-0.023,-0.0269,-0.0269,-0.0268,-0.0162,-0.0159,-0.0157,-0.0071,-0.0071,-0.0072,-0.0072,0.0085,0.009,0.0095,0,0,0,0,0,0,0,0,0,0,0,0,0,-0.0187,-0.0231,-0.0269,-0.0221,-0.0216,-0.0162,-0.0159,-0.0156,-0.0071,-0.0071,-0.0072,-0.0072,0.0083,0.009,0.0096,0.0138,0,0,0.0116,0.0118,0,0,0,0,0,0,0,0,-0.019,-0.0187,-0.0228,-0.0224,-0.0219,-0.0139,-0.0087,-0.0059,-0.0071,-0.0115,-0.0072,-0.0072,0.0009,0.0022,0.0056,0.0146,0.0153,0.0116,0.012,0.0123,0.0125,0,0,0,0,0,0,0,-0.0193,-0.0191,-0.0216,-0.0228,-0.0222,-0.0146,-0.014,-0.008,-0.0045,-0.0111,-0.0108,-0.0112,0.0014,0.005,0.006,0.0155,0.0116,0.0122,0.0126,0.0128,0.027,0.027,0,0,0,0,0,0,-0.0236,-0.0195,-0.022,-0.0214,-0.0216,-0.0148,-0.0141,-0.0156,-0.0046,-0.0033,-0.0112,-0.0109,0.0039,0.0053,0.0066,0.0146,0.0123,0.0129,0.0133,0.027,0.027,0.027,0,0,0,0,0,0,-0.0236,-0.024,-0.0224,-0.0209,-0.0203,-0.0151,-0.0166,-0.0154,-0.0123,-0.0049,-0.0033,-0.0097,0.0039,0.0057,0.0146,0.0151,0.0132,0.0138,0.027,0.027,0.027,0.029,0,0,0,0,0,0,-0.0235,-0.024,-0.0252,-0.0213,-0.0206,-0.0208,-0.0167,-0.0152,-0.0131,-0.0125,-0.0031,-0.0016,0.0041,0.0136,0.0152,0.016,0.0143,0.0271,0.027,0.027,0.0289,0.0291,0.0291,0,0,0,0,0,-0.0234,-0.0249,-0.0254,-0.0256,-0.0229,-0.0209,-0.0197,-0.0152,-0.0131,-0.0122,-0.0032,-0.0019,0.0144,0.0143,0.0162,0.0171,0.0271,0.027,0.027,0.0289,0.029,0.0291,0,0,0,0,0,0,-0.0233,-0.0242,-0.0245,-0.0263,-0.0251,-0.0199,-0.0184,-0.016,-0.0082,-0.0065,0.0012,0.0035,0.0108,0.0131,0.0127,0.0204,0.0196,0.0199,0.0203,0.0205,0.0206,0.0148,0.0148,0,0,0,0,0,-0.0247,-0.0263,-0.0259,-0.0274,-0.0272,-0.0231,-0.0213,-0.0188,-0.0126,-0.0093,-0.0025,0.0046,0.0121,0.0157,0.0219,0.0277,0.0311,0.0281,0.0282,0.0283,0.0244,0.0356,0.0364,0.0269,0.0269,0.0269,0,0,-0.0251,-0.026,-0.0268,-0.0276,-0.0255,-0.0233,-0.0217,-0.0199,-0.0159,-0.0087,0.0003,0.006,0.0138,0.0213,0.0242,0.0235,0.0327,0.0282,0.0283,0.0243,0.0357,0.0366,0.0375,0.0269,0.0269,0.0269,0,0,-0.0252,-0.0279,-0.0281,-0.027,-0.0262,-0.0241,-0.0246,-0.0201,-0.0158,-0.0081,-0.0012,0.004,0.0153,0.0206,0.0251,0.0283,0.0334,0.0296,0.026,0.0371,0.038,0.0389,0.0448,0.0462,0.0292,0.0292,0.0292,0,-0.0255,-0.0264,-0.0276,-0.0263,-0.0249,-0.025,-0.0227,-0.0184,-0.0109,-0.0066,-0.006,0.009,0.0143,0.0239,0.0243,0.0284,0.0348,0.0262,0.0376,0.0384,0.0393,0.0452,0.0467,0.0293,0.0293,0.0293,0.0293,0,-0.0245,-0.0246,-0.0245,-0.0235,-0.0219,-0.0211,-0.0174,-0.0135,-0.01,-0.006,0.0024,0.0094,0.0166,0.0192,0.0232,0.0307,0.0335,0.0377,0.0379,0.0404,0.0464,0.0479,0.0295,0.0294,0.0294,0.0294,0,0,-0.0264,-0.0246,-0.0243,-0.0222,-0.0206,-0.0188,-0.0129,-0.0079,-0.0025,0.0012,0.007,0.0154,0.0148,0.0189,0.0234,0.0302,0.0412,0.0351,0.0357,0.0417,0.0645,0.0545,0.0552,0.051,0.0512,0.0514,0.0665,0,-0.0252,-0.0229,-0.0217,-0.0175,-0.0156,-0.0126,-0.0066,-0.0014,0.0031,0.0086,0.0112,0.0177,0.0165,0.0197,0.0256,0.0366,0.0452,0.0364,0.06,0.0604,0.0522,0.0566,0.0608,0.0736,0.068,0.0683,0.0684,0,-0.0234,-0.0224,-0.0193,-0.013,-0.0117,-0.009,-0.0006,0.005,0.0118,0.016,0.0182,0.0196,0.0233,0.0243,0.0405,0.0364,0.049,0.0575,0.0586,0.0483,0.0532,0.0699,0.0766,0.0787,0.0708,0.0706,0.0704,0,-0.0229,-0.0192,-0.0173,-0.0157,-0.0098,-0.0058,-0.0018,0.0065,0.0135,0.0183,0.0213,0.0253,0.0267,0.0405,0.0478,0.0491,0.067,0.0732,0.0766,0.0761,0.0825,0.0818,0.0938,0.0903,0.0902,0.0902,0.0901,0,-0.0212,-0.0184,-0.0174,-0.0155,-0.0103,-0.0057,0.0026,0.0084,0.0161,0.0237,0.0224,0.0269,0.032,0.0391,0.0504,0.062,0.07,0.0741,0.0795,0.0827,0.082,0.0859,0.0847,0.0907,0.0906,0.0905,0.0904,0,-0.0184,-0.0189,-0.0153,-0.0113,-0.0099,-0.0055,0.0046,0.0118,0.0179,0.0268,0.0274,0.0296,0.0369,0.0412,0.0608,0.0641,0.0817,0.084,0.0812,0.0856,0.0859,0.0845,0.0957,0.105,0.0904,0.0903,0.0901,0,-0.0163,-0.0154,-0.0131,-0.0115,-0.01,-0.0034,0.0026,0.0118,0.0198,0.0305,0.0343,0.0377,0.0441,0.0568,0.0617,0.0751,0.0832,0.0868,0.0879,0.0833,0.0864,0.0861,0.0934,0.1002,0.1002,0.1001,0.1001,0,-0.0115,-0.0123,-0.0101,-0.0085,-0.0047,0.0035,0.0118,0.0185,0.0306,0.0385,0.0495,0.0544,0.0575,0.0658,0.0703,0.0797,0.0867,0.0861,0.089,0.097,0.0911,0.1035,0.0882,0.0998,0.0998,0.0999,0.0999,0.0999,-0.0075,-0.0069,-0.0064,-0.0029,0.0014,0.011,0.0206,0.0301,0.0441,0.0615,0.0632,0.0792,0.0827,0.0868,0.0838,0.084,0.0881,0.0937,0.0936,0.0945,0.0979,0.0736,0.0845,0.0845,0.0844,0.0844,0.0843,0,-0.0044,-0.0032,-0.0003,0.0047,0.0125,0.0135,0.028,0.04,0.0567,0.0744,0.0881,0.1152,0.1129,0.1089,0.1033,0.0983,0.1024,0.0972,0.1049,0.1139,0.1021,0.0965,0.1013,0.1013,0.1013,0.1013,0.1013,0.1013,-0.0023,-0.0005,0.0007,0.014,0.019,0.034,0.0439,0.0586,0.0747,0.1059,0.1305,0.146,0.1567,0.1236,0.11,0.1069,0.1176,0.107,0.1137,0.108,0.108,0.1079,0.1026,0.1087,0.1087,0.1339,0.134,0.1341]}],[{"header":{"parameterUnit":"m.s-1","parameterCategory":2,"la1":30.2991,"la2":30.254,"lo1":-89.0895,"lo2":-89.0444,"dy":0.0017,"dx":0.0017,"nx":28,"ny":28,"refTime":"2023-08-11T09:00:00:Z","depth":"2","parameterNumber":2,"parameterNumberName":"U-component_of_CURRENTS"},"data":[0,0,0,0,0,0,0,0,0,0,0,0,0,0,0,0,0,0,0,0,0,0,0,0,0,0,0,0,0,0,0,0,0,0,0,0,0,0,0,0,0,0,0,0,0,0,0,0,0,0,0,0,0,0,0,0,0,0,-0.3014,-0.3013,0,-0.2886,-0.2884,-0.2882,-0.2955,-0.2959,-0.2963,-0.2967,-0.3083,-0.3083,-0.3082,0,0,0,0,0,0,0,0,0,0,0,0,0,-0.2926,-0.293,-0.3014,-0.3013,-0.3012,-0.2886,-0.2884,-0.2881,-0.2954,-0.2959,-0.2964,-0.2968,-0.3084,-0.3083,-0.3082,0,0,0,0,0,0,0,0,0,0,0,0,0,-0.2894,-0.2931,-0.3014,-0.3036,-0.3037,-0.2886,-0.2884,-0.2881,-0.2953,-0.2959,-0.2965,-0.2971,-0.3084,-0.3083,-0.3082,-0.2955,0,0,-0.3079,-0.3079,0,0,0,0,0,0,0,0,-0.2896,-0.2897,-0.3034,-0.3035,-0.3036,-0.2947,-0.2895,-0.292,-0.2952,-0.298,-0.2967,-0.2974,-0.3059,-0.306,-0.3012,-0.2961,-0.2966,-0.3079,-0.3078,-0.3078,-0.3078,0,0,0,0,0,0,0,-0.2899,-0.29,-0.2958,-0.3033,-0.3033,-0.2917,-0.2922,-0.2897,-0.2988,-0.2978,-0.2984,-0.2975,-0.3061,-0.3013,-0.3017,-0.2967,-0.3079,-0.3078,-0.3077,-0.3077,-0.2967,-0.2964,0,0,0,0,0,0,-0.2939,-0.2905,-0.2963,-0.2955,-0.2985,-0.2916,-0.2921,-0.2965,-0.2983,-0.2991,-0.297,-0.2979,-0.3011,-0.3018,-0.3021,-0.2974,-0.3078,-0.3077,-0.3076,-0.2969,-0.2966,-0.2964,0,0,0,0,0,0,-0.2938,-0.2947,-0.2968,-0.2927,-0.2923,-0.2915,-0.296,-0.296,-0.2984,-0.2976,-0.2989,-0.3007,-0.3016,-0.3023,-0.3077,-0.2977,-0.3077,-0.3076,-0.2972,-0.2968,-0.2965,-0.2817,0,0,0,0,0,0,-0.2937,-0.2949,-0.3007,-0.2932,-0.2927,-0.294,-0.2955,-0.2953,-0.2967,-0.298,-0.3008,-0.3021,-0.3022,-0.3079,-0.3076,-0.2978,-0.3075,-0.2975,-0.297,-0.2966,-0.2825,-0.2809,-0.2795,0,0,0,0,0,-0.2935,-0.2999,-0.3012,-0.3019,-0.3006,-0.2941,-0.2928,-0.2934,-0.2964,-0.2977,-0.3013,-0.3024,-0.3047,-0.3078,-0.3075,-0.2973,-0.2977,-0.2971,-0.2966,-0.2831,-0.2812,-0.2796,0,0,0,0,0,0,-0.2993,-0.301,-0.3024,-0.3095,-0.3048,-0.2958,-0.2963,-0.2955,-0.2975,-0.3013,-0.3021,-0.3034,-0.3011,-0.3039,-0.3073,-0.2931,-0.2999,-0.2994,-0.2898,-0.288,-0.2865,-0.2761,-0.3074,0,0,0,0,0,-0.3028,-0.3084,-0.3051,-0.3098,-0.3086,-0.3026,-0.3008,-0.3006,-0.2997,-0.3012,-0.3027,-0.3026,-0.296,-0.2979,-0.2945,-0.2904,-0.2849,-0.283,-0.2815,-0.2803,-0.2717,-0.2648,-0.2617,-0.2946,-0.2946,-0.2946,0,0,-0.3046,-0.3071,-0.3096,-0.3111,-0.3071,-0.302,-0.3033,-0.3018,-0.3001,-0.302,-0.3038,-0.298,-0.2939,-0.2866,-0.2857,-0.2902,-0.2669,-0.2796,-0.2784,-0.2704,-0.2639,-0.2606,-0.2577,-0.2943,-0.2943,-0.2944,0,0,-0.3037,-0.3144,-0.3143,-0.3112,-0.3084,-0.3059,-0.3073,-0.3018,-0.3048,-0.304,-0.2993,-0.2881,-0.2904,-0.2758,-0.2704,-0.2591,-0.2582,-0.2614,-0.2462,-0.2398,-0.2369,-0.2343,-0.2174,-0.2135,-0.2622,-0.2621,-0.2621,0,-0.3049,-0.3076,-0.3122,-0.3077,-0.3069,-0.3084,-0.3043,-0.3035,-0.3013,-0.2997,-0.3075,-0.2823,-0.2804,-0.2545,-0.249,-0.2537,-0.2506,-0.2534,-0.2374,-0.2348,-0.2324,-0.2158,-0.2115,-0.2614,-0.2615,-0.2615,-0.2616,0,-0.2995,-0.3016,-0.3009,-0.299,-0.2988,-0.2969,-0.2967,-0.2994,-0.3043,-0.2975,-0.2814,-0.2693,-0.2525,-0.247,-0.2449,-0.2192,-0.222,-0.2353,-0.2411,-0.2281,-0.2115,-0.2073,-0.2603,-0.2605,-0.2608,-0.261,0,0,-0.301,-0.298,-0.2981,-0.2958,-0.2963,-0.2945,-0.2964,-0.2931,-0.2902,-0.2818,-0.2682,-0.2431,-0.2298,-0.2214,-0.2092,-0.1981,-0.1748,-0.2091,-0.2092,-0.1901,-0.1544,-0.1553,-0.1509,-0.1912,-0.1906,-0.1901,-0.1475,0,-0.2948,-0.2881,-0.2904,-0.2849,-0.2814,-0.2871,-0.2875,-0.2852,-0.2854,-0.2743,-0.2504,-0.2315,-0.2229,-0.209,-0.1943,-0.1801,-0.1644,-0.1844,-0.1714,-0.1704,-0.1715,-0.1463,-0.1616,-0.1253,-0.1435,-0.1428,-0.1423,0,-0.2878,-0.2859,-0.2807,-0.2799,-0.2798,-0.278,-0.282,-0.2816,-0.2681,-0.2656,-0.2372,-0.2209,-0.1813,-0.1882,-0.1456,-0.1619,-0.153,-0.1443,-0.1431,-0.1448,-0.1637,-0.1427,-0.1172,-0.1355,-0.136,-0.1365,-0.137,0,-0.2863,-0.2802,-0.2794,-0.2777,-0.2759,-0.2784,-0.2809,-0.2763,-0.2738,-0.2532,-0.2408,-0.2015,-0.1769,-0.1581,-0.1323,-0.1424,-0.0962,-0.1122,-0.0988,-0.0987,-0.1076,-0.1095,-0.0858,-0.0859,-0.086,-0.0861,-0.0862,0,-0.2812,-0.2784,-0.2779,-0.2756,-0.2741,-0.2766,-0.2732,-0.2731,-0.2619,-0.2474,-0.2288,-0.2044,-0.1717,-0.1419,-0.1258,-0.0921,-0.0904,-0.0824,-0.0854,-0.1026,-0.1044,-0.1148,-0.1187,-0.0845,-0.0848,-0.0851,-0.0854,0,-0.2769,-0.2764,-0.2723,-0.2725,-0.2713,-0.2717,-0.2685,-0.2629,-0.2576,-0.2368,-0.2266,-0.1988,-0.1634,-0.1292,-0.0953,-0.0811,-0.0547,-0.0476,-0.0621,-0.0674,-0.0609,-0.0646,-0.0205,-0.0201,-0.0198,-0.0195,-0.0193,0,-0.2736,-0.2715,-0.2694,-0.2632,-0.2624,-0.2608,-0.2571,-0.2589,-0.2522,-0.232,-0.2186,-0.1824,-0.1541,-0.0986,-0.0744,-0.0367,-0.0416,-0.0285,-0.0482,-0.0454,-0.0529,-0.0572,-0.0612,-0.05,-0.0501,-0.0501,-0.0501,0,-0.2665,-0.2679,-0.2635,-0.2524,-0.2477,-0.2414,-0.238,-0.2351,-0.2332,-0.2174,-0.1956,-0.174,-0.1297,-0.0965,-0.0544,-0.0406,-0.0353,-0.0282,-0.0187,-0.0691,-0.0713,-0.0796,-0.0828,-0.0505,-0.0504,-0.0504,-0.0504,-0.0504,-0.2599,-0.2549,-0.2481,-0.2375,-0.229,-0.2212,-0.2145,-0.2127,-0.2042,-0.1796,-0.1742,-0.1359,-0.1213,-0.0588,-0.0433,-0.0292,-0.0323,-0.0292,-0.0298,-0.0302,-0.0461,-0.0484,-0.025,-0.0249,-0.0247,-0.0246,-0.0245,0,-0.2426,-0.2378,-0.2297,-0.2186,-0.2079,-0.2048,-0.1963,-0.1885,-0.1769,-0.154,-0.1308,-0.096,-0.0755,-0.0554,-0.0376,-0.029,-0.0375,-0.0262,-0.0423,-0.0425,-0.0425,-0.0596,-0.0416,-0.0415,-0.0413,-0.0412,0,0,-0.2317,-0.2181,-0.2161,-0.1991,-0.1893,-0.1713,-0.1632,-0.1508,-0.1336,-0.1036,-0.0762,-0.0609,-0.0553,-0.0402,-0.0448,-0.0383,-0.0387,-0.0389,-0.0292,-0.0491,-0.0487,-0.052,-0.0795,0,0,0,0,0]},{"header":{"parameterUnit":"m.s-1","parameterCategory":2,"la1":30.2991,"la2":30.254,"lo1":-89.0895,"lo2":-89.0444,"dy":0.0017,"dx":0.0017,"nx":28,"ny":28,"refTime":"2023-08-11T09:00:00:Z","depth":"2","parameterNumber":3,"parameterNumberName":"V-component_of_CURRENTS"},"data":[0,0,0,0,0,0,0,0,0,0,0,0,0,0,0,0,0,0,0,0,0,0,0,0,0,0,0,0,0,0,0,0,0,0,0,0,0,0,0,0,0,0,0,0,0,0,0,0,0,0,0,0,0,0,0,0,0,0,-0.0452,-0.0451,0,-0.0363,-0.0362,-0.0362,-0.0204,-0.02,-0.0197,-0.0194,0.0202,0.021,0.0217,0,0,0,0,0,0,0,0,0,0,0,0,0,-0.0603,-0.06,-0.0453,-0.0451,-0.0449,-0.0363,-0.0362,-0.0361,-0.0204,-0.02,-0.0196,-0.0192,0.02,0.0209,0.0217,0,0,0,0,0,0,0,0,0,0,0,0,0,-0.0532,-0.06,-0.0453,-0.0357,-0.0347,-0.0363,-0.0362,-0.0361,-0.0205,-0.02,-0.0195,-0.019,0.0197,0.0208,0.0219,0.0185,0,0,0.0252,0.0257,0,0,0,0,0,0,0,0,-0.0536,-0.0527,-0.0373,-0.0364,-0.0353,-0.0285,-0.027,-0.0162,-0.0207,-0.0264,-0.0194,-0.0188,0.0067,0.0089,0.0083,0.0203,0.022,0.0253,0.026,0.0265,0.0268,0,0,0,0,0,0,0,-0.0541,-0.0531,-0.0422,-0.0372,-0.0359,-0.0358,-0.0342,-0.0251,-0.0126,-0.0259,-0.0246,-0.023,0.0075,0.0072,0.0095,0.0226,0.0253,0.0263,0.027,0.0274,0.0599,0.0601,0,0,0,0,0,0,-0.0542,-0.0535,-0.0424,-0.0418,-0.0429,-0.0359,-0.0341,-0.0316,-0.0133,-0.0102,-0.0235,-0.0223,0.0051,0.0082,0.011,0.0272,0.0265,0.0275,0.0282,0.0597,0.06,0.0602,0,0,0,0,0,0,-0.0546,-0.0533,-0.0428,-0.0472,-0.0457,-0.036,-0.0334,-0.0317,-0.0266,-0.0118,-0.008,-0.0195,0.0056,0.0095,0.0255,0.0283,0.028,0.029,0.0595,0.0598,0.0601,0.0475,0,0,0,0,0,0,-0.0551,-0.0535,-0.0518,-0.0471,-0.0454,-0.042,-0.0338,-0.0318,-0.0265,-0.0248,-0.0073,-0.0034,0.0063,0.0238,0.0266,0.0298,0.0299,0.0592,0.0596,0.06,0.0477,0.0473,0.047,0,0,0,0,0,-0.0556,-0.0535,-0.0517,-0.0503,-0.0433,-0.0421,-0.0414,-0.0331,-0.0268,-0.0264,-0.0111,-0.0037,0.0283,0.0247,0.028,0.0316,0.059,0.0595,0.0599,0.0478,0.0474,0.0471,0,0,0,0,0,0,-0.058,-0.0516,-0.0495,-0.0452,-0.0438,-0.0391,-0.0368,-0.0327,-0.0219,-0.0165,-0.0021,0.0027,0.0178,0.0265,0.0222,0.0426,0.0452,0.0463,0.0348,0.0346,0.0343,0.0267,0.0308,0,0,0,0,0,-0.0588,-0.0555,-0.0517,-0.0489,-0.0475,-0.0428,-0.0407,-0.0359,-0.0264,-0.0212,-0.009,0.0066,0.0203,0.0292,0.0411,0.051,0.0554,0.0562,0.0559,0.0555,0.052,0.0598,0.0596,0.0617,0.0617,0.0617,0,0,-0.0593,-0.0552,-0.0533,-0.0494,-0.0466,-0.047,-0.04,-0.0363,-0.0337,-0.0182,-0.0075,0.0057,0.0229,0.0352,0.0427,0.044,0.058,0.0561,0.0556,0.0522,0.0602,0.0599,0.0597,0.062,0.0619,0.0619,0,0,-0.061,-0.0549,-0.0545,-0.0538,-0.0499,-0.0474,-0.046,-0.0404,-0.0337,-0.0238,-0.0106,0.0028,0.0234,0.0334,0.0423,0.0471,0.0556,0.0542,0.0468,0.0545,0.0542,0.054,0.06,0.0604,0.0544,0.0543,0.0543,0,-0.0621,-0.0597,-0.0548,-0.0557,-0.0541,-0.0477,-0.0486,-0.0438,-0.0332,-0.0261,-0.0194,0.0081,0.0215,0.0354,0.0378,0.0457,0.0515,0.046,0.0533,0.0532,0.0532,0.0594,0.06,0.0538,0.0539,0.0539,0.054,0,-0.0652,-0.0634,-0.0627,-0.0613,-0.0605,-0.0589,-0.0535,-0.0491,-0.0387,-0.0309,-0.014,0.0012,0.0175,0.0245,0.0334,0.041,0.0456,0.0509,0.0519,0.052,0.0588,0.0597,0.053,0.0532,0.0534,0.0535,0,0,-0.0663,-0.065,-0.0647,-0.065,-0.0619,-0.0614,-0.0574,-0.0504,-0.0433,-0.0318,-0.0228,-0.0026,0.0056,0.0156,0.0268,0.0326,0.0377,0.0406,0.0413,0.0423,0.0542,0.051,0.0517,0.0448,0.0449,0.045,0.059,0,-0.0697,-0.072,-0.07,-0.0719,-0.0723,-0.0669,-0.0637,-0.0561,-0.0438,-0.034,-0.0188,-0.0044,0.0028,0.0114,0.0173,0.0321,0.0394,0.0333,0.0576,0.0582,0.0518,0.0523,0.0408,0.0517,0.0598,0.06,0.0601,0,-0.0731,-0.0734,-0.0756,-0.0746,-0.0739,-0.0732,-0.0646,-0.0605,-0.0461,-0.0362,-0.024,-0.0116,-0.0026,0.0047,0.0233,0.0197,0.0353,0.046,0.0471,0.0478,0.0564,0.0535,0.053,0.0615,0.0614,0.0613,0.0612,0,-0.0756,-0.0769,-0.0773,-0.0775,-0.076,-0.0729,-0.0694,-0.0575,-0.0501,-0.0372,-0.0293,-0.0176,-0.0085,0.0058,0.0237,0.0263,0.0435,0.0516,0.0637,0.0638,0.06,0.0595,0.0672,0.0672,0.0672,0.0671,0.0671,0,-0.0789,-0.0797,-0.0771,-0.0777,-0.0752,-0.073,-0.0655,-0.0603,-0.0493,-0.0391,-0.0296,-0.0213,-0.0071,0.0046,0.0205,0.0397,0.0417,0.0601,0.0664,0.0558,0.0547,0.0683,0.0682,0.0677,0.0675,0.0674,0.0673,0,-0.0826,-0.0813,-0.0819,-0.0787,-0.0763,-0.0735,-0.0649,-0.0587,-0.0491,-0.0376,-0.0344,-0.0227,-0.0098,0.003,0.026,0.038,0.0555,0.0647,0.0485,0.0525,0.0727,0.072,0.0801,0.0801,0.0801,0.0801,0.0801,0,-0.0848,-0.0853,-0.082,-0.0793,-0.0764,-0.0707,-0.0658,-0.0582,-0.0514,-0.0363,-0.0318,-0.0189,-0.0098,0.0134,0.031,0.0516,0.0585,0.0586,0.0614,0.0683,0.0738,0.073,0.0722,0.0536,0.0534,0.0532,0.0531,0,-0.0881,-0.0856,-0.0852,-0.0799,-0.0743,-0.0703,-0.0624,-0.06,-0.0493,-0.0414,-0.0305,-0.0232,-0.0023,0.0101,0.0322,0.0444,0.051,0.0561,0.0685,0.0503,0.044,0.0491,0.0492,0.0515,0.0516,0.0517,0.0518,0.0519,-0.0877,-0.0876,-0.0843,-0.0795,-0.0738,-0.069,-0.0644,-0.0591,-0.0528,-0.0421,-0.0357,-0.0223,-0.0129,0.0153,0.0299,0.0463,0.0519,0.0561,0.0565,0.0571,0.0496,0.0434,0.0494,0.0495,0.0497,0.0498,0.0499,0,-0.0856,-0.0852,-0.0831,-0.0787,-0.0756,-0.0677,-0.0607,-0.0592,-0.0533,-0.0437,-0.0359,-0.0237,-0.0117,0.0065,0.0315,0.0451,0.0443,0.0456,0.0412,0.0424,0.0435,0.0354,0.0315,0.0316,0.0317,0.0318,0,0,-0.0842,-0.0829,-0.0834,-0.0803,-0.0743,-0.0637,-0.0577,-0.0575,-0.0506,-0.0435,-0.0306,-0.031,-0.0093,0.0028,0.0124,0.0273,0.0334,0.0266,0.038,0.0322,0.0334,0.0438,0.0317,0,0,0,0,0]}],[{"header":{"parameterUnit":"m.s-1","parameterCategory":2,"la1":30.2991,"la2":30.254,"lo1":-89.0895,"lo2":-89.0444,"dy":0.0017,"dx":0.0017,"nx":28,"ny":28,"refTime":"2023-08-11T09:00:00:Z","depth":"4","parameterNumber":2,"parameterNumberName":"U-component_of_CURRENTS"},"data":[0,0,0,0,0,0,0,0,0,0,0,0,0,0,0,0,0,0,0,0,0,0,0,0,0,0,0,0,0,0,0,0,0,0,0,0,0,0,0,0,0,0,0,0,0,0,0,0,0,0,0,0,0,0,0,0,0,0,-0.1203,-0.1204,0,-0.1299,-0.1301,-0.1302,-0.1344,-0.1344,-0.1344,-0.1344,-0.1419,-0.1421,-0.1424,0,0,0,0,0,0,0,0,0,0,0,0,0,-0.1134,-0.1135,-0.1203,-0.1204,-0.1205,-0.1299,-0.1301,-0.1302,-0.1344,-0.1344,-0.1344,-0.1344,-0.1419,-0.1421,-0.1424,0,0,0,0,0,0,0,0,0,0,0,0,0,-0.1192,-0.1135,-0.1202,-0.1236,-0.124,-0.1299,-0.1301,-0.1302,-0.1345,-0.1344,-0.1344,-0.1343,-0.1418,-0.1421,-0.1424,-0.1452,0,0,-0.1434,-0.1436,0,0,0,0,0,0,0,0,-0.1188,-0.1194,-0.123,-0.1234,-0.1239,-0.1308,-0.1304,-0.1351,-0.1345,-0.1306,-0.1344,-0.1343,-0.138,-0.1386,-0.1407,-0.1456,-0.1459,-0.1435,-0.1437,-0.1438,-0.1439,0,0,0,0,0,0,0,-0.1184,-0.1191,-0.1242,-0.1232,-0.1237,-0.1274,-0.1281,-0.1314,-0.1344,-0.131,-0.1313,-0.1322,-0.1382,-0.1404,-0.1409,-0.146,-0.1435,-0.1438,-0.144,-0.1441,-0.1574,-0.1575,0,0,0,0,0,0,-0.1166,-0.1187,-0.1239,-0.1245,-0.1211,-0.1275,-0.1283,-0.1287,-0.1345,-0.1353,-0.1322,-0.1323,-0.1398,-0.1405,-0.1412,-0.1508,-0.1438,-0.1441,-0.1443,-0.1572,-0.1574,-0.1576,0,0,0,0,0,0,-0.1164,-0.117,-0.1235,-0.1217,-0.1228,-0.1276,-0.1281,-0.1289,-0.133,-0.1354,-0.1362,-0.1355,-0.1398,-0.1407,-0.1456,-0.1508,-0.1443,-0.1446,-0.157,-0.1573,-0.1575,-0.1661,0,0,0,0,0,0,-0.1162,-0.1168,-0.1184,-0.1216,-0.1228,-0.1269,-0.1281,-0.1292,-0.1334,-0.1338,-0.1385,-0.1391,-0.1399,-0.1451,-0.1459,-0.1512,-0.1449,-0.1569,-0.1571,-0.1574,-0.1656,-0.1666,-0.1674,0,0,0,0,0,-0.1159,-0.1171,-0.1184,-0.1192,-0.1242,-0.127,-0.128,-0.1314,-0.1336,-0.1351,-0.1391,-0.139,-0.1475,-0.1455,-0.1465,-0.1519,-0.1567,-0.1571,-0.1574,-0.1652,-0.1664,-0.1674,0,0,0,0,0,0,-0.1149,-0.1178,-0.1192,-0.1214,-0.1241,-0.1276,-0.1304,-0.1328,-0.1375,-0.1384,-0.1412,-0.142,-0.1479,-0.1484,-0.1462,-0.1562,-0.1521,-0.1526,-0.1577,-0.1588,-0.1597,-0.1556,-0.1451,0,0,0,0,0,-0.1154,-0.1176,-0.12,-0.1223,-0.1236,-0.1278,-0.1303,-0.1319,-0.1356,-0.1378,-0.1414,-0.1454,-0.15,-0.153,-0.1554,-0.1617,-0.1598,-0.1656,-0.1665,-0.1672,-0.1644,-0.1669,-0.1678,-0.1587,-0.1587,-0.1587,0,0,-0.1159,-0.1179,-0.1193,-0.1224,-0.1254,-0.1278,-0.1292,-0.1325,-0.1358,-0.1378,-0.1447,-0.1482,-0.1519,-0.1584,-0.1612,-0.1599,-0.1694,-0.1677,-0.1683,-0.165,-0.1674,-0.1682,-0.169,-0.1589,-0.1589,-0.1588,0,0,-0.117,-0.1195,-0.1214,-0.1237,-0.1273,-0.1294,-0.1305,-0.1348,-0.1382,-0.1443,-0.1472,-0.1537,-0.1603,-0.1647,-0.1677,-0.175,-0.1731,-0.1765,-0.1795,-0.1822,-0.183,-0.1835,-0.1844,-0.185,-0.1782,-0.1782,-0.1782,0,-0.1179,-0.12,-0.1225,-0.1247,-0.1271,-0.1301,-0.1322,-0.1364,-0.1421,-0.145,-0.1467,-0.1588,-0.1633,-0.172,-0.1752,-0.1773,-0.1765,-0.1759,-0.1834,-0.1839,-0.1844,-0.185,-0.1856,-0.1787,-0.1786,-0.1786,-0.1785,0,-0.1194,-0.1222,-0.1236,-0.1274,-0.1301,-0.1323,-0.1365,-0.1402,-0.1451,-0.1492,-0.158,-0.1651,-0.1716,-0.1765,-0.1788,-0.186,-0.1837,-0.1835,-0.1805,-0.1858,-0.1862,-0.1866,-0.1793,-0.1792,-0.179,-0.1789,0,0,-0.1176,-0.1235,-0.1242,-0.126,-0.1314,-0.1327,-0.1385,-0.1434,-0.1466,-0.1552,-0.1607,-0.1731,-0.1763,-0.1796,-0.1851,-0.1894,-0.1956,-0.1882,-0.1881,-0.1886,-0.1995,-0.1794,-0.1779,-0.1966,-0.1967,-0.1967,-0.1992,0,-0.1181,-0.1217,-0.1252,-0.129,-0.1305,-0.1351,-0.1397,-0.1447,-0.1503,-0.156,-0.1656,-0.1724,-0.178,-0.1822,-0.1881,-0.1922,-0.1965,-0.1947,-0.1943,-0.1942,-0.1755,-0.1777,-0.197,-0.1995,-0.1996,-0.1996,-0.1997,0,-0.1174,-0.1198,-0.1234,-0.1281,-0.1293,-0.1325,-0.1378,-0.1424,-0.1507,-0.1551,-0.1638,-0.1696,-0.1799,-0.1824,-0.193,-0.1912,-0.1951,-0.1985,-0.1987,-0.1757,-0.1746,-0.1925,-0.2003,-0.2003,-0.2002,-0.2002,-0.2002,0,-0.112,-0.118,-0.1206,-0.1226,-0.1287,-0.1314,-0.1351,-0.1422,-0.1454,-0.1541,-0.1562,-0.1686,-0.1732,-0.1817,-0.1889,-0.1916,-0.1957,-0.201,-0.1869,-0.1856,-0.1995,-0.1988,-0.2062,-0.2062,-0.2061,-0.2061,-0.2061,0,-0.1091,-0.1112,-0.1184,-0.1193,-0.1216,-0.1276,-0.1308,-0.1356,-0.1423,-0.1446,-0.1553,-0.1572,-0.1724,-0.1769,-0.186,-0.1839,-0.1939,-0.1846,-0.1838,-0.2034,-0.2031,-0.1999,-0.1992,-0.2062,-0.2062,-0.2062,-0.2062,0,-0.1022,-0.1078,-0.1104,-0.1171,-0.119,-0.1206,-0.1269,-0.1284,-0.1351,-0.1379,-0.1403,-0.1485,-0.1511,-0.1622,-0.1727,-0.1753,-0.1792,-0.1762,-0.1928,-0.1934,-0.1696,-0.1693,-0.1632,-0.1624,-0.1618,-0.1613,-0.1609,0,-0.0987,-0.0995,-0.1067,-0.1073,-0.1105,-0.114,-0.1156,-0.124,-0.1256,-0.131,-0.1308,-0.133,-0.138,-0.1354,-0.1488,-0.1584,-0.1596,-0.1625,-0.1696,-0.1647,-0.1648,-0.1654,-0.1659,-0.1599,-0.1598,-0.1596,-0.1595,0,-0.0912,-0.0953,-0.0973,-0.0989,-0.1013,-0.1024,-0.106,-0.106,-0.1141,-0.121,-0.1164,-0.1179,-0.1163,-0.1231,-0.1258,-0.1359,-0.1619,-0.1564,-0.158,-0.1646,-0.1608,-0.1616,-0.1628,-0.1574,-0.1577,-0.1579,-0.158,0,-0.0861,-0.0857,-0.089,-0.0894,-0.0909,-0.0892,-0.0933,-0.0935,-0.096,-0.104,-0.1012,-0.1048,-0.1107,-0.1108,-0.1165,-0.1189,-0.1234,-0.1289,-0.1321,-0.1346,-0.1243,-0.1152,-0.0945,0,0,0,0,0,-0.0805,-0.079,-0.0784,-0.0778,-0.078,-0.0788,-0.0852,-0.0901,-0.0988,-0.0917,-0.0963,-0.0944,-0.0954,-0.0983,-0.0962,-0.1085,-0.1262,-0.1064,-0.1347,-0.1457,-0.1481,-0.1389,0,0,0,0,0,0,-0.0768,-0.0769,-0.076,-0.0675,-0.063,-0.0627,-0.0665,-0.073,-0.0708,-0.0796,-0.0791,-0.0876,-0.0891,-0.0909,-0.092,-0.0941,-0.111,-0.1108,-0.1107,-0.1443,-0.1465,-0.1485,-0.1399,0,0,0,0,0]},{"header":{"parameterUnit":"m.s-1","parameterCategory":2,"la1":30.2991,"la2":30.254,"lo1":-89.0895,"lo2":-89.0444,"dy":0.0017,"dx":0.0017,"nx":28,"ny":28,"refTime":"2023-08-11T09:00:00:Z","depth":"4","parameterNumber":3,"parameterNumberName":"V-component_of_CURRENTS"},"data":[0,0,0,0,0,0,0,0,0,0,0,0,0,0,0,0,0,0,0,0,0,0,0,0,0,0,0,0,0,0,0,0,0,0,0,0,0,0,0,0,0,0,0,0,0,0,0,0,0,0,0,0,0,0,0,0,0,0,-0.0413,-0.0413,0,-0.0416,-0.0416,-0.0416,-0.0401,-0.0401,-0.04,-0.04,-0.0279,-0.0276,-0.0274,0,0,0,0,0,0,0,0,0,0,0,0,0,-0.041,-0.041,-0.0413,-0.0413,-0.0413,-0.0416,-0.0416,-0.0416,-0.0401,-0.0401,-0.04,-0.0399,-0.028,-0.0277,-0.0273,0,0,0,0,0,0,0,0,0,0,0,0,0,-0.0413,-0.041,-0.0413,-0.0405,-0.0404,-0.0416,-0.0416,-0.0416,-0.0401,-0.0401,-0.04,-0.0399,-0.0281,-0.0277,-0.0273,-0.0263,0,0,-0.026,-0.0259,0,0,0,0,0,0,0,0,-0.0413,-0.0413,-0.0406,-0.0406,-0.0405,-0.0407,-0.0371,-0.0358,-0.0402,-0.0403,-0.04,-0.0399,-0.031,-0.0304,-0.0309,-0.0257,-0.0252,-0.026,-0.0258,-0.0256,-0.0255,0,0,0,0,0,0,0,-0.0413,-0.0413,-0.0415,-0.0406,-0.0405,-0.0407,-0.0406,-0.0369,-0.0359,-0.0403,-0.0402,-0.0401,-0.0309,-0.0313,-0.0306,-0.025,-0.026,-0.0257,-0.0254,-0.0252,-0.0142,-0.0142,0,0,0,0,0,0,-0.0411,-0.0413,-0.0415,-0.0415,-0.0406,-0.0407,-0.0407,-0.0408,-0.0362,-0.0356,-0.0402,-0.04,-0.0321,-0.031,-0.0301,-0.0281,-0.0256,-0.0252,-0.025,-0.0143,-0.0142,-0.0142,0,0,0,0,0,0,-0.0411,-0.0411,-0.0415,-0.0413,-0.0414,-0.0408,-0.0409,-0.0408,-0.0416,-0.0363,-0.0353,-0.0411,-0.0319,-0.0307,-0.0274,-0.0276,-0.025,-0.0246,-0.0143,-0.0143,-0.0142,-0.0244,0,0,0,0,0,0,-0.0411,-0.0411,-0.0417,-0.0413,-0.0414,-0.043,-0.041,-0.0409,-0.0416,-0.0414,-0.0367,-0.0355,-0.0318,-0.0281,-0.027,-0.027,-0.0243,-0.0144,-0.0143,-0.0142,-0.0241,-0.0247,-0.0252,0,0,0,0,0,-0.0411,-0.0422,-0.0418,-0.0418,-0.042,-0.043,-0.0431,-0.0425,-0.0417,-0.0428,-0.0393,-0.0357,-0.0267,-0.0278,-0.0265,-0.0264,-0.0144,-0.0143,-0.0142,-0.0239,-0.0246,-0.0252,0,0,0,0,0,0,-0.0426,-0.0422,-0.0416,-0.0427,-0.0431,-0.0427,-0.0438,-0.0433,-0.0419,-0.0413,-0.0362,-0.0348,-0.0316,-0.0273,-0.0287,-0.0225,-0.0195,-0.0191,-0.0272,-0.0278,-0.0283,-0.0309,-0.024,0,0,0,0,0,-0.0432,-0.0439,-0.0436,-0.0445,-0.0449,-0.0446,-0.0451,-0.0447,-0.0432,-0.0427,-0.0398,-0.035,-0.0302,-0.028,-0.0235,-0.0212,-0.0189,-0.0195,-0.0201,-0.0206,-0.0216,-0.0195,-0.0201,-0.0138,-0.0138,-0.0138,0,0,-0.0442,-0.0439,-0.0444,-0.0449,-0.0451,-0.0471,-0.0447,-0.046,-0.0475,-0.0412,-0.0422,-0.037,-0.0299,-0.0272,-0.0252,-0.0238,-0.0212,-0.0205,-0.021,-0.0217,-0.0195,-0.0201,-0.0207,-0.0138,-0.0138,-0.0138,0,0,-0.0466,-0.0463,-0.0478,-0.0487,-0.0493,-0.0494,-0.05,-0.0504,-0.0504,-0.0507,-0.0452,-0.0408,-0.036,-0.0307,-0.0271,-0.0275,-0.024,-0.0252,-0.0305,-0.0285,-0.0291,-0.0296,-0.0288,-0.0291,-0.0257,-0.0257,-0.0257,0,-0.0477,-0.0495,-0.0486,-0.0506,-0.0522,-0.0508,-0.0538,-0.0538,-0.0533,-0.0529,-0.0519,-0.0441,-0.0376,-0.0328,-0.0324,-0.0289,-0.0282,-0.0294,-0.0297,-0.0301,-0.0304,-0.0294,-0.0297,-0.0262,-0.0261,-0.026,-0.026,0,-0.0511,-0.0533,-0.0545,-0.0566,-0.0584,-0.0605,-0.0608,-0.0619,-0.0617,-0.0609,-0.0581,-0.0512,-0.0461,-0.0427,-0.0377,-0.0355,-0.0345,-0.0311,-0.0293,-0.0318,-0.0304,-0.0305,-0.0268,-0.0267,-0.0265,-0.0264,0,0,-0.0519,-0.056,-0.0566,-0.0593,-0.0619,-0.0638,-0.0663,-0.0675,-0.0682,-0.0676,-0.0681,-0.0599,-0.0563,-0.0518,-0.0449,-0.0427,-0.0434,-0.0389,-0.0386,-0.0404,-0.0413,-0.0324,-0.0316,-0.0415,-0.0416,-0.0416,-0.04,0,-0.0549,-0.0602,-0.0616,-0.0677,-0.0709,-0.0715,-0.0741,-0.0748,-0.0741,-0.074,-0.0678,-0.0647,-0.0597,-0.0566,-0.0542,-0.046,-0.0439,-0.0442,-0.0366,-0.0364,-0.0301,-0.0314,-0.0417,-0.0401,-0.0401,-0.0401,-0.0401,0,-0.0579,-0.0611,-0.0677,-0.0734,-0.0749,-0.0787,-0.082,-0.0837,-0.082,-0.081,-0.0785,-0.0734,-0.0692,-0.064,-0.0571,-0.0585,-0.0506,-0.045,-0.0448,-0.033,-0.0275,-0.0363,-0.0402,-0.0402,-0.0402,-0.0402,-0.0402,0,-0.0592,-0.0657,-0.0712,-0.0734,-0.0792,-0.0826,-0.0854,-0.086,-0.0866,-0.085,-0.0843,-0.0806,-0.0768,-0.0712,-0.059,-0.0593,-0.0509,-0.0491,-0.0341,-0.0334,-0.0378,-0.0373,-0.0428,-0.0428,-0.0428,-0.0429,-0.0429,0,-0.0617,-0.0665,-0.0726,-0.0759,-0.0825,-0.0856,-0.0905,-0.0917,-0.0918,-0.0912,-0.0877,-0.0853,-0.0784,-0.0716,-0.0628,-0.0491,-0.054,-0.0355,-0.0322,-0.042,-0.042,-0.038,-0.0374,-0.0428,-0.0428,-0.0428,-0.0428,0,-0.0629,-0.0667,-0.0739,-0.0811,-0.0838,-0.0888,-0.0948,-0.0966,-0.0964,-0.0957,-0.0952,-0.09,-0.0814,-0.072,-0.06,-0.0512,-0.04,-0.032,-0.0444,-0.0416,-0.0241,-0.0241,-0.0201,-0.0197,-0.0194,-0.0192,-0.019,0,-0.0638,-0.0674,-0.0773,-0.0817,-0.086,-0.0927,-0.0965,-0.0991,-0.0995,-0.0969,-0.0956,-0.0877,-0.0817,-0.0618,-0.0517,-0.036,-0.0298,-0.0257,-0.0244,-0.0246,-0.0217,-0.0221,-0.0225,-0.0186,-0.0185,-0.0184,-0.0183,0,-0.065,-0.0691,-0.0746,-0.0833,-0.0898,-0.0963,-0.1011,-0.101,-0.1011,-0.1012,-0.0929,-0.082,-0.0698,-0.0575,-0.0424,-0.0308,-0.0315,-0.0227,-0.0233,-0.022,-0.0227,-0.0202,-0.0209,-0.0174,-0.0175,-0.0176,-0.0176,0,-0.0653,-0.0694,-0.0761,-0.0836,-0.0919,-0.0972,-0.1003,-0.0993,-0.0995,-0.0945,-0.0917,-0.0798,-0.0742,-0.0543,-0.0421,-0.0289,-0.0253,-0.0215,-0.0221,-0.023,-0.0224,-0.0236,-0.0162,0,0,0,0,0,-0.0646,-0.0683,-0.0753,-0.0837,-0.0919,-0.0963,-0.1015,-0.1027,-0.1014,-0.0944,-0.0922,-0.0798,-0.0591,-0.0525,-0.0374,-0.0373,-0.0243,-0.0191,-0.0205,-0.0119,-0.013,-0.0107,0,0,0,0,0,0,-0.0643,-0.0702,-0.0738,-0.0816,-0.0866,-0.0948,-0.0983,-0.0983,-0.0934,-0.0905,-0.0805,-0.0741,-0.0558,-0.067,-0.0365,-0.0328,-0.031,-0.0103,-0.0099,-0.0113,-0.0123,-0.0132,-0.0112,0,0,0,0,0]}]]